Time,TemperatureF,DewpointF,PressureIn,WindDirection,WindDirectionDegrees,WindSpeedMPH,WindSpeedGustMPH,Humidity,HourlyPrecipIn,Conditions,Clouds,dailyrainin,SoftwareType,DateUTC
2013-01-16 00:03:00,27.3,19.8,30.12,SE,134,0.0,0.0,73,0.00,,---,0.00,VWS V14.01,2013-01-16 05:03:00,
2013-01-16 00:09:00,27.4,20.2,30.10,SE,134,1.0,1.0,74,0.00,,---,0.00,VWS V14.01,2013-01-16 05:09:00,
2013-01-16 00:11:00,27.4,20.2,30.11,SE,134,1.0,2.0,74,0.00,,---,0.00,VWS V14.01,2013-01-16 05:11:00,
2013-01-16 00:13:00,27.3,19.8,30.11,ENE,78,1.0,3.0,73,0.00,,---,0.00,VWS V14.01,2013-01-16 05:13:00,
2013-01-16 00:19:00,27.4,20.2,30.11,ENE,78,0.0,3.0,74,0.00,,---,0.00,VWS V14.01,2013-01-16 05:19:00,
2013-01-16 00:25:00,27.4,19.9,30.10,ENE,78,0.0,3.0,73,0.00,,---,0.00,VWS V14.01,2013-01-16 05:25:00,
2013-01-16 00:31:00,27.4,19.9,30.10,ENE,78,0.0,3.0,73,0.00,,---,0.00,VWS V14.01,2013-01-16 05:31:00,
2013-01-16 00:37:00,27.5,20.0,30.11,ENE,78,0.0,0.0,73,0.00,,---,0.00,VWS V14.01,2013-01-16 05:37:00,
2013-01-16 00:43:00,27.5,20.0,30.10,ENE,78,0.0,2.0,73,0.00,,---,0.00,VWS V14.01,2013-01-16 05:43:00,
2013-01-16 00:50:00,27.5,20.0,30.10,ENE,78,1.0,2.0,73,0.00,,---,0.00,VWS V14.01,2013-01-16 05:50:00,
2013-01-16 00:56:00,27.5,20.0,30.10,ENE,78,0.0,2.0,73,0.00,,---,0.00,VWS V14.01,2013-01-16 05:56:00,
2013-01-16 01:01:00,27.5,20.3,30.09,ENE,78,1.0,2.0,74,0.00,,---,0.00,VWS V14.01,2013-01-16 06:01:00,
2013-01-16 01:08:00,27.6,20.4,30.08,ENE,78,1.0,2.0,74,0.00,,---,0.00,VWS V14.01,2013-01-16 06:08:00,
2013-01-16 01:14:00,27.6,20.1,30.08,ENE,78,0.0,2.0,73,0.00,,---,0.00,VWS V14.01,2013-01-16 06:14:00,
2013-01-16 01:20:00,27.6,20.4,30.09,ENE,78,0.0,2.0,74,0.00,,---,0.00,VWS V14.01,2013-01-16 06:20:00,
2013-01-16 01:26:00,27.7,20.5,30.09,ENE,78,0.0,2.0,74,0.00,,---,0.00,VWS V14.01,2013-01-16 06:26:00,
2013-01-16 01:31:00,27.7,20.5,30.09,ENE,78,0.0,2.0,74,0.00,,---,0.00,VWS V14.01,2013-01-16 06:31:00,
2013-01-16 01:36:00,27.8,20.6,30.08,ENE,78,0.0,1.0,74,0.00,,---,0.00,VWS V14.01,2013-01-16 06:36:00,
2013-01-16 01:42:00,27.8,20.6,30.07,ESE,119,0.0,3.0,74,0.00,,---,0.00,VWS V14.01,2013-01-16 06:42:00,
2013-01-16 01:50:00,27.9,20.7,30.06,ESE,120,2.0,3.0,74,0.00,,---,0.00,VWS V14.01,2013-01-16 06:50:00,
2013-01-16 01:57:00,27.9,20.7,30.06,East,88,0.0,3.0,74,0.00,,---,0.00,VWS V14.01,2013-01-16 06:57:00,
2013-01-16 02:03:00,28.0,20.8,30.05,East,88,0.0,1.0,74,0.00,,---,0.00,VWS V14.01,2013-01-16 07:03:00,
2013-01-16 02:09:00,28.0,20.8,30.05,East,89,1.0,2.0,74,0.00,,---,0.00,VWS V14.01,2013-01-16 07:09:00,
2013-01-16 02:15:00,28.1,20.9,30.07,ESE,107,0.0,2.0,74,0.00,,---,0.00,VWS V14.01,2013-01-16 07:15:00,
2013-01-16 02:21:00,28.1,20.9,30.05,ESE,114,0.0,3.0,74,0.00,,---,0.00,VWS V14.01,2013-01-16 07:21:00,
2013-01-16 02:27:00,28.3,21.1,30.05,ESE,115,0.0,3.0,74,0.00,,---,0.00,VWS V14.01,2013-01-16 07:27:00,
2013-01-16 02:33:00,28.3,21.1,30.05,ESE,115,0.0,1.0,74,0.00,,---,0.00,VWS V14.01,2013-01-16 07:33:00,
2013-01-16 02:39:00,28.4,21.2,30.05,South,181,0.0,3.0,74,0.00,,---,0.00,VWS V14.01,2013-01-16 07:39:00,
2013-01-16 02:45:00,28.5,21.3,30.05,SE,138,2.0,3.0,74,0.00,,---,0.00,VWS V14.01,2013-01-16 07:45:00,
2013-01-16 02:51:00,28.5,21.3,30.05,SE,138,1.0,3.0,74,0.00,,---,0.00,VWS V14.01,2013-01-16 07:51:00,
2013-01-16 02:57:00,28.5,21.6,30.06,SE,138,0.0,3.0,75,0.00,,---,0.00,VWS V14.01,2013-01-16 07:57:00,
2013-01-16 03:03:00,28.6,21.4,30.06,South,190,0.0,2.0,74,0.00,,---,0.00,VWS V14.01,2013-01-16 08:03:00,
2013-01-16 03:09:00,28.6,21.7,30.06,South,190,0.0,2.0,75,0.00,,---,0.00,VWS V14.01,2013-01-16 08:09:00,
2013-01-16 03:15:00,28.6,22.0,30.05,South,190,0.0,2.0,76,0.00,,---,0.00,VWS V14.01,2013-01-16 08:15:00,
2013-01-16 03:21:00,28.6,22.0,30.04,South,190,0.0,2.0,76,0.00,,---,0.00,VWS V14.01,2013-01-16 08:21:00,
2013-01-16 03:27:00,28.7,22.4,30.05,East,97,1.0,3.0,77,0.00,,---,0.00,VWS V14.01,2013-01-16 08:27:00,
2013-01-16 03:33:00,28.7,23.0,30.04,ESE,117,1.0,3.0,79,0.00,,---,0.00,VWS V14.01,2013-01-16 08:33:00,
2013-01-16 03:39:00,28.7,23.6,30.03,ESE,113,2.0,4.0,81,0.00,,---,0.00,VWS V14.01,2013-01-16 08:39:00,
2013-01-16 03:45:00,28.7,23.9,30.02,SSE,149,0.0,4.0,82,0.00,,---,0.00,VWS V14.01,2013-01-16 08:45:00,
2013-01-16 03:51:00,28.5,24.3,30.02,SE,130,0.0,4.0,84,0.00,,---,0.00,VWS V14.01,2013-01-16 08:51:00,
2013-01-16 03:57:00,28.4,24.5,30.03,NNW,343,0.0,4.0,85,0.00,,---,0.00,VWS V14.01,2013-01-16 08:57:00,
2013-01-16 04:04:00,28.3,24.7,30.03,ESE,110,0.0,2.0,86,0.00,,---,0.00,VWS V14.01,2013-01-16 09:04:00,
2013-01-16 04:10:00,28.2,24.6,30.04,SE,127,1.0,3.0,86,0.00,,---,0.00,VWS V14.01,2013-01-16 09:10:00,
2013-01-16 04:16:00,28.1,24.7,30.02,SE,126,0.0,3.0,87,0.00,,---,0.00,VWS V14.01,2013-01-16 09:16:00,
2013-01-16 04:22:00,28.1,24.7,30.01,ENE,58,0.0,3.0,87,0.00,,---,0.00,VWS V14.01,2013-01-16 09:22:00,
2013-01-16 04:28:00,28.1,25.0,30.02,East,96,0.0,3.0,88,0.00,,---,0.00,VWS V14.01,2013-01-16 09:28:00,
2013-01-16 04:34:00,28.0,24.9,30.02,East,97,3.0,3.0,88,0.00,,---,0.00,VWS V14.01,2013-01-16 09:34:00,
2013-01-16 04:40:00,28.0,24.9,30.01,East,97,0.0,3.0,88,0.00,,---,0.00,VWS V14.01,2013-01-16 09:40:00,
2013-01-16 04:46:00,28.0,24.9,30.02,East,97,1.0,3.0,88,0.00,,---,0.00,VWS V14.01,2013-01-16 09:46:00,
2013-01-16 04:52:00,28.0,24.9,30.00,East,95,1.0,3.0,88,0.00,,---,0.00,VWS V14.01,2013-01-16 09:52:00,
2013-01-16 04:58:00,28.0,24.9,30.00,SE,136,1.0,3.0,88,0.00,,---,0.00,VWS V14.01,2013-01-16 09:58:00,
2013-01-16 05:04:00,28.0,24.9,30.00,SE,126,2.0,3.0,88,0.00,,---,0.00,VWS V14.01,2013-01-16 10:04:00,
2013-01-16 05:10:00,28.0,24.9,29.99,ESE,121,0.0,4.0,88,0.00,,---,0.00,VWS V14.01,2013-01-16 10:10:00,
2013-01-16 05:16:00,28.0,24.9,29.99,SE,140,0.0,4.0,88,0.00,,---,0.00,VWS V14.01,2013-01-16 10:16:00,
2013-01-16 05:22:00,28.0,24.9,29.99,SE,140,2.0,4.0,88,0.00,,---,0.00,VWS V14.01,2013-01-16 10:22:00,
2013-01-16 05:28:00,28.0,24.9,29.98,SE,141,1.0,4.0,88,0.00,,---,0.00,VWS V14.01,2013-01-16 10:28:00,
2013-01-16 05:34:00,28.1,25.0,29.98,East,101,2.0,3.0,88,0.00,,---,0.00,VWS V14.01,2013-01-16 10:34:00,
2013-01-16 05:40:00,28.1,25.0,29.97,East,98,0.0,3.0,88,0.00,,---,0.00,VWS V14.01,2013-01-16 10:40:00,
2013-01-16 05:46:00,28.1,25.0,29.98,East,98,0.0,3.0,88,0.00,,---,0.00,VWS V14.01,2013-01-16 10:46:00,
2013-01-16 05:52:00,28.1,25.0,29.98,East,98,1.0,3.0,88,0.00,,---,0.00,VWS V14.01,2013-01-16 10:52:00,
2013-01-16 05:59:00,28.1,25.0,29.97,ENE,57,0.0,3.0,88,0.00,,---,0.00,VWS V14.01,2013-01-16 10:59:00,
2013-01-16 06:05:00,28.1,25.0,29.96,ENE,57,0.0,2.0,88,0.00,,---,0.00,VWS V14.01,2013-01-16 11:05:00,
2013-01-16 06:11:00,28.1,25.0,29.97,SE,129,0.0,2.0,88,0.00,,---,0.00,VWS V14.01,2013-01-16 11:11:00,
2013-01-16 06:17:00,28.2,25.1,29.97,ESE,112,1.0,4.0,88,0.00,,---,0.00,VWS V14.01,2013-01-16 11:17:00,
2013-01-16 06:23:00,28.1,25.0,29.97,ESE,112,0.0,4.0,88,0.00,,---,0.00,VWS V14.01,2013-01-16 11:23:00,
2013-01-16 06:29:00,28.2,25.1,29.97,SE,146,1.0,4.0,88,0.00,,---,0.00,VWS V14.01,2013-01-16 11:29:00,
2013-01-16 06:35:00,28.2,25.1,29.97,SSE,148,1.0,2.0,88,0.00,,---,0.00,VWS V14.01,2013-01-16 11:35:00,
2013-01-16 06:41:00,28.2,25.1,29.96,SSE,148,0.0,2.0,88,0.00,,---,0.00,VWS V14.01,2013-01-16 11:41:00,
2013-01-16 06:47:00,28.2,25.1,29.98,SSE,148,0.0,2.0,88,0.00,,---,0.00,VWS V14.01,2013-01-16 11:47:00,
2013-01-16 06:53:00,28.2,25.1,29.96,SSE,148,0.0,2.0,88,0.00,,---,0.00,VWS V14.01,2013-01-16 11:53:00,
2013-01-16 06:59:00,28.2,25.1,29.97,SSE,148,0.0,2.0,88,0.00,,---,0.00,VWS V14.01,2013-01-16 11:59:00,
2013-01-16 07:05:00,28.1,25.0,29.97,SSE,148,0.0,2.0,88,0.00,,---,0.00,VWS V14.01,2013-01-16 12:05:00,
2013-01-16 07:11:00,28.2,25.1,29.96,SSE,148,0.0,2.0,88,0.00,,---,0.00,VWS V14.01,2013-01-16 12:11:00,
2013-01-16 07:17:00,28.1,25.0,29.96,SSE,148,0.0,2.0,88,0.00,,---,0.00,VWS V14.01,2013-01-16 12:17:00,
2013-01-16 07:23:00,28.2,25.1,29.95,SSE,148,0.0,2.0,88,0.00,,---,0.00,VWS V14.01,2013-01-16 12:23:00,
2013-01-16 07:29:00,28.2,25.1,29.96,SSE,148,0.0,2.0,88,0.00,,---,0.00,VWS V14.01,2013-01-16 12:29:00,
2013-01-16 07:35:00,28.2,25.1,29.95,SSE,148,0.0,1.0,88,0.00,,---,0.00,VWS V14.01,2013-01-16 12:35:00,
2013-01-16 07:42:00,28.2,25.1,29.96,SSE,148,0.0,1.0,88,0.00,,---,0.00,VWS V14.01,2013-01-16 12:42:00,
2013-01-16 07:48:00,28.2,25.1,29.95,SSE,148,0.0,1.0,88,0.00,,---,0.00,VWS V14.01,2013-01-16 12:48:00,
2013-01-16 07:54:00,28.2,25.1,29.96,SSE,148,0.0,2.0,88,0.00,,---,0.00,VWS V14.01,2013-01-16 12:54:00,
2013-01-16 08:00:00,28.2,25.1,29.95,SSE,148,0.0,2.0,88,0.00,,---,0.00,VWS V14.01,2013-01-16 13:00:00,
2013-01-16 08:06:00,28.2,25.1,29.96,SSE,148,0.0,0.0,88,0.00,,---,0.00,VWS V14.01,2013-01-16 13:06:00,
2013-01-16 08:12:00,28.2,25.1,29.95,SSE,148,0.0,2.0,88,0.00,,---,0.00,VWS V14.01,2013-01-16 13:12:00,
2013-01-16 08:18:00,28.3,25.2,29.95,SSE,148,0.0,2.0,88,0.00,,---,0.00,VWS V14.01,2013-01-16 13:18:00,
2013-01-16 08:24:00,28.3,25.2,29.96,SSE,148,0.0,2.0,88,0.00,,---,0.00,VWS V14.01,2013-01-16 13:24:00,
2013-01-16 08:30:00,28.3,25.2,29.96,SSE,148,0.0,2.0,88,0.00,,---,0.00,VWS V14.01,2013-01-16 13:30:00,
2013-01-16 08:36:00,28.3,25.2,29.96,SSE,148,0.0,0.0,88,0.00,,---,0.00,VWS V14.01,2013-01-16 13:36:00,
2013-01-16 08:42:00,28.3,25.2,29.96,SSE,148,0.0,0.0,88,0.00,,---,0.00,VWS V14.01,2013-01-16 13:42:00,
2013-01-16 08:48:00,28.4,25.3,29.96,SSE,148,0.0,0.0,88,0.00,,---,0.00,VWS V14.01,2013-01-16 13:48:00,
2013-01-16 08:54:00,28.4,25.3,29.96,SSE,148,0.0,0.0,88,0.00,,---,0.00,VWS V14.01,2013-01-16 13:54:00,
2013-01-16 09:00:00,28.5,25.4,29.95,SSE,148,0.0,1.0,88,0.00,,---,0.00,VWS V14.01,2013-01-16 14:00:00,
2013-01-16 09:06:00,28.5,25.4,29.95,SSE,148,0.0,0.0,88,0.00,,---,0.00,VWS V14.01,2013-01-16 14:06:00,
2013-01-16 09:12:00,28.6,25.5,29.96,SSE,148,0.0,0.0,88,0.00,,---,0.00,VWS V14.01,2013-01-16 14:12:00,
2013-01-16 09:18:00,28.7,25.6,29.95,SSE,148,0.0,0.0,88,0.00,,---,0.00,VWS V14.01,2013-01-16 14:18:00,
2013-01-16 09:24:00,28.8,25.7,29.96,SSE,148,0.0,0.0,88,0.00,,---,0.00,VWS V14.01,2013-01-16 14:24:00,
2013-01-16 09:30:00,28.8,25.7,29.95,SSE,148,0.0,0.0,88,0.00,,---,0.00,VWS V14.01,2013-01-16 14:30:00,
2013-01-16 09:36:00,28.9,25.8,29.93,SSE,148,0.0,1.0,88,0.00,,---,0.00,VWS V14.01,2013-01-16 14:36:00,
2013-01-16 09:43:00,29.0,25.9,29.94,SSE,148,0.0,2.0,88,0.00,,---,0.00,VWS V14.01,2013-01-16 14:43:00,
2013-01-16 09:49:00,29.1,26.0,29.94,SW,218,0.0,2.0,88,0.00,,---,0.00,VWS V14.01,2013-01-16 14:49:00,
2013-01-16 09:55:00,29.2,26.1,29.93,South,191,0.0,2.0,88,0.00,,---,0.00,VWS V14.01,2013-01-16 14:55:00,
2013-01-16 10:01:00,29.3,26.2,29.94,SSW,192,0.0,2.0,88,0.00,,---,0.00,VWS V14.01,2013-01-16 15:01:00,
2013-01-16 10:07:00,29.4,26.3,29.92,South,191,0.0,2.0,88,0.00,,---,0.00,VWS V14.01,2013-01-16 15:07:00,
2013-01-16 10:13:00,29.4,26.0,29.93,West,265,0.0,3.0,87,0.00,,---,0.00,VWS V14.01,2013-01-16 15:13:00,
2013-01-16 10:19:00,29.4,26.0,29.91,West,265,0.0,3.0,87,0.00,,---,0.00,VWS V14.01,2013-01-16 15:19:00,
2013-01-16 10:25:00,29.4,26.0,29.91,West,265,0.0,3.0,87,0.00,,---,0.00,VWS V14.01,2013-01-16 15:25:00,
2013-01-16 10:31:00,29.5,26.1,29.90,West,265,0.0,3.0,87,0.00,,---,0.00,VWS V14.01,2013-01-16 15:31:00,
2013-01-16 10:37:00,29.6,26.2,29.89,West,265,0.0,1.0,87,0.00,,---,0.00,VWS V14.01,2013-01-16 15:37:00,
2013-01-16 10:43:00,29.6,26.2,29.90,West,265,0.0,1.0,87,0.00,,---,0.00,VWS V14.01,2013-01-16 15:43:00,
2013-01-16 10:49:00,29.7,26.3,29.88,West,265,0.0,2.0,87,0.00,,---,0.00,VWS V14.01,2013-01-16 15:49:00,
2013-01-16 10:55:00,29.8,26.4,29.90,West,265,0.0,2.0,87,0.00,,---,0.00,VWS V14.01,2013-01-16 15:55:00,
2013-01-16 11:01:00,29.9,26.5,29.90,South,186,0.0,2.0,87,0.00,,---,0.00,VWS V14.01,2013-01-16 16:01:00,
2013-01-16 11:07:00,30.0,26.6,29.91,SW,217,0.0,4.0,87,0.00,,---,0.00,VWS V14.01,2013-01-16 16:07:00,
2013-01-16 11:13:00,30.1,26.7,29.89,SSW,211,0.0,4.0,87,0.00,,---,0.00,VWS V14.01,2013-01-16 16:13:00,
2013-01-16 11:19:00,30.2,26.8,29.89,SSW,210,0.0,4.0,87,0.00,,---,0.00,VWS V14.01,2013-01-16 16:19:00,
2013-01-16 11:25:00,30.3,26.9,29.89,SSW,205,2.0,4.0,87,0.00,,---,0.00,VWS V14.01,2013-01-16 16:25:00,
2013-01-16 11:31:00,30.3,26.9,29.90,WSW,239,1.0,4.0,87,0.00,,---,0.00,VWS V14.01,2013-01-16 16:31:00,
2013-01-16 11:37:00,30.3,26.9,29.88,WSW,238,1.0,2.0,87,0.00,,---,0.00,VWS V14.01,2013-01-16 16:37:00,
2013-01-16 11:43:00,30.3,26.9,29.89,West,271,3.0,4.0,87,0.00,,---,0.00,VWS V14.01,2013-01-16 16:43:00,
2013-01-16 11:50:00,30.3,26.9,29.89,SSW,209,0.0,6.0,87,0.00,,---,0.00,VWS V14.01,2013-01-16 16:50:00,
2013-01-16 11:56:00,30.4,27.3,29.88,South,183,1.0,6.0,88,0.00,,---,0.00,VWS V14.01,2013-01-16 16:56:00,
2013-01-16 12:01:00,30.5,27.4,29.87,SSW,213,1.0,6.0,88,0.00,,---,0.00,VWS V14.01,2013-01-16 17:01:00,
2013-01-16 12:08:00,30.6,27.5,29.87,WSW,252,2.0,2.0,88,0.00,,---,0.00,VWS V14.01,2013-01-16 17:08:00,
2013-01-16 12:14:00,30.7,27.6,29.87,SW,222,0.0,2.0,88,0.00,,---,0.00,VWS V14.01,2013-01-16 17:14:00,
2013-01-16 12:20:00,30.7,27.6,29.87,SW,223,0.0,3.0,88,0.00,,---,0.00,VWS V14.01,2013-01-16 17:20:00,
2013-01-16 12:26:00,30.8,27.7,29.87,WSW,241,2.0,3.0,88,0.00,,---,0.00,VWS V14.01,2013-01-16 17:26:00,
2013-01-16 12:31:00,30.9,27.8,29.86,WSW,241,0.0,3.0,88,0.00,,---,0.00,VWS V14.01,2013-01-16 17:31:00,
2013-01-16 12:38:00,31.2,28.1,29.87,WSW,238,2.0,2.0,88,0.00,,---,0.00,VWS V14.01,2013-01-16 17:38:00,
2013-01-16 12:44:00,31.3,28.2,29.87,WSW,244,0.0,5.0,88,0.00,,---,0.00,VWS V14.01,2013-01-16 17:44:00,
2013-01-16 12:50:00,31.4,28.3,29.86,WSW,248,3.0,5.0,88,0.00,,---,0.00,VWS V14.01,2013-01-16 17:50:00,
2013-01-16 12:56:00,31.5,28.4,29.85,WSW,252,3.0,5.0,88,0.00,,---,0.00,VWS V14.01,2013-01-16 17:56:00,
2013-01-16 13:01:00,31.7,28.6,29.85,WSW,252,2.0,5.0,88,0.00,,---,0.00,VWS V14.01,2013-01-16 18:01:00,
2013-01-16 13:08:00,31.8,28.7,29.86,West,277,2.0,6.0,88,0.00,,---,0.00,VWS V14.01,2013-01-16 18:08:00,
2013-01-16 13:14:00,31.8,28.7,29.86,SW,216,2.0,6.0,88,0.00,,---,0.00,VWS V14.01,2013-01-16 18:14:00,
2013-01-16 13:20:00,31.9,28.8,29.85,West,265,1.0,7.0,88,0.00,,---,0.00,VWS V14.01,2013-01-16 18:20:00,
2013-01-16 13:26:00,31.9,28.8,29.85,SW,229,5.0,7.0,88,0.00,,---,0.00,VWS V14.01,2013-01-16 18:26:00,
2013-01-16 13:32:00,31.7,28.6,29.85,West,261,5.0,7.0,88,0.00,,---,0.00,VWS V14.01,2013-01-16 18:32:00,
2013-01-16 13:38:00,31.7,28.8,29.85,South,190,3.0,10.0,89,0.00,,---,0.00,VWS V14.01,2013-01-16 18:38:00,
2013-01-16 13:44:00,31.7,28.6,29.85,West,277,4.0,11.0,88,0.00,,---,0.00,VWS V14.01,2013-01-16 18:44:00,
2013-01-16 13:50:00,31.7,28.6,29.85,WNW,296,6.0,11.0,88,0.00,,---,0.00,VWS V14.01,2013-01-16 18:50:00,
2013-01-16 13:57:00,31.7,28.6,29.85,West,266,5.0,12.0,88,0.00,,---,0.00,VWS V14.01,2013-01-16 18:57:00,
2013-01-16 14:03:00,32.0,28.6,29.84,SW,228,4.0,10.0,87,0.00,,---,0.00,VWS V14.01,2013-01-16 19:03:00,
2013-01-16 14:09:00,32.1,28.7,29.84,West,268,2.0,11.0,87,0.00,,---,0.00,VWS V14.01,2013-01-16 19:09:00,
2013-01-16 14:15:00,32.1,28.4,29.85,West,281,6.0,13.0,86,0.00,,---,0.00,VWS V14.01,2013-01-16 19:15:00,
2013-01-16 14:21:00,32.2,28.5,29.85,WSW,257,2.0,13.0,86,0.00,,---,0.00,VWS V14.01,2013-01-16 19:21:00,
2013-01-16 14:27:00,32.3,28.6,29.84,WSW,239,4.0,13.0,86,0.00,,---,0.00,VWS V14.01,2013-01-16 19:27:00,
2013-01-16 14:33:00,32.4,28.4,29.84,West,271,3.0,5.0,85,0.00,,---,0.00,VWS V14.01,2013-01-16 19:33:00,
2013-01-16 14:39:00,32.4,28.4,29.84,West,269,6.0,10.0,85,0.00,,---,0.00,VWS V14.01,2013-01-16 19:39:00,
2013-01-16 14:45:00,32.6,28.6,29.85,WSW,256,4.0,10.0,85,0.00,,---,0.00,VWS V14.01,2013-01-16 19:45:00,
2013-01-16 14:51:00,32.6,28.6,29.86,WNW,287,3.0,10.0,85,0.00,,---,0.00,VWS V14.01,2013-01-16 19:51:00,
2013-01-16 14:57:00,32.7,28.4,29.86,WNW,289,3.0,10.0,84,0.00,,---,0.00,VWS V14.01,2013-01-16 19:57:00,
2013-01-16 15:03:00,32.8,28.8,29.86,West,269,3.0,5.0,85,0.00,,---,0.00,VWS V14.01,2013-01-16 20:03:00,
2013-01-16 15:09:00,32.8,28.5,29.85,SW,234,2.0,7.0,84,0.00,,---,0.00,VWS V14.01,2013-01-16 20:09:00,
2013-01-16 15:15:00,32.9,28.3,29.85,SW,232,3.0,8.0,83,0.00,,---,0.00,VWS V14.01,2013-01-16 20:15:00,
2013-01-16 15:21:00,33.0,28.4,29.85,WSW,255,4.0,8.0,83,0.00,,---,0.00,VWS V14.01,2013-01-16 20:21:00,
2013-01-16 15:27:00,32.9,27.4,29.85,WSW,246,6.0,9.0,80,0.00,,---,0.00,VWS V14.01,2013-01-16 20:27:00,
2013-01-16 15:33:00,32.9,27.7,29.85,WSW,256,2.0,4.0,81,0.00,,---,0.00,VWS V14.01,2013-01-16 20:33:00,
2013-01-16 15:39:00,32.9,27.4,29.86,West,263,3.0,7.0,80,0.00,,---,0.00,VWS V14.01,2013-01-16 20:39:00,
2013-01-16 15:45:00,32.8,27.3,29.86,West,259,8.0,11.0,80,0.00,,---,0.00,VWS V14.01,2013-01-16 20:45:00,
2013-01-16 15:51:00,32.7,26.9,29.85,WNW,292,2.0,11.0,79,0.00,,---,0.00,VWS V14.01,2013-01-16 20:51:00,
2013-01-16 15:58:00,32.6,26.8,29.85,West,266,2.0,11.0,79,0.00,,---,0.00,VWS V14.01,2013-01-16 20:58:00,
2013-01-16 16:04:00,32.5,26.7,29.86,WSW,242,3.0,6.0,79,0.00,,---,0.00,VWS V14.01,2013-01-16 21:04:00,
2013-01-16 16:10:00,32.4,26.9,29.86,West,268,7.0,7.0,80,0.00,,---,0.00,VWS V14.01,2013-01-16 21:10:00,
2013-01-16 16:16:00,32.3,26.5,29.86,WNW,299,2.0,7.0,79,0.00,,---,0.00,VWS V14.01,2013-01-16 21:16:00,
2013-01-16 16:22:00,32.2,26.4,29.87,NW,314,3.0,11.0,79,0.00,,---,0.00,VWS V14.01,2013-01-16 21:22:00,
2013-01-16 16:28:00,32.1,26.3,29.86,SW,225,5.0,11.0,79,0.00,,---,0.00,VWS V14.01,2013-01-16 21:28:00,
2013-01-16 16:34:00,32.0,26.2,29.86,SSW,198,2.0,3.0,79,0.00,,---,0.00,VWS V14.01,2013-01-16 21:34:00,
2013-01-16 16:40:00,31.8,26.0,29.87,SSW,209,1.0,4.0,79,0.00,,---,0.00,VWS V14.01,2013-01-16 21:40:00,
2013-01-16 16:46:00,31.6,26.1,29.87,WSW,241,0.0,4.0,80,0.00,,---,0.00,VWS V14.01,2013-01-16 21:46:00,
2013-01-16 16:52:00,31.4,26.0,29.87,WSW,244,3.0,6.0,80,0.00,,---,0.00,VWS V14.01,2013-01-16 21:52:00,
2013-01-16 16:58:00,31.2,26.1,29.88,ESE,121,3.0,6.0,81,0.00,,---,0.00,VWS V14.01,2013-01-16 21:58:00,
2013-01-16 17:04:00,31.0,25.9,29.88,West,261,1.0,6.0,81,0.00,,---,0.00,VWS V14.01,2013-01-16 22:04:00,
2013-01-16 17:10:00,30.8,26.0,29.88,South,188,1.0,7.0,82,0.00,,---,0.00,VWS V14.01,2013-01-16 22:10:00,
2013-01-16 17:16:00,30.7,25.6,29.88,SW,236,3.0,7.0,81,0.00,,---,0.00,VWS V14.01,2013-01-16 22:16:00,
2013-01-16 17:22:00,30.6,25.5,29.88,West,275,3.0,7.0,81,0.00,,---,0.00,VWS V14.01,2013-01-16 22:22:00,
2013-01-16 17:28:00,30.4,25.3,29.88,SW,236,3.0,9.0,81,0.00,,---,0.00,VWS V14.01,2013-01-16 22:28:00,
2013-01-16 17:34:00,30.3,25.2,29.88,West,271,6.0,6.0,81,0.00,,---,0.00,VWS V14.01,2013-01-16 22:34:00,
2013-01-16 17:40:00,30.3,25.2,29.89,WSW,246,5.0,7.0,81,0.00,,---,0.00,VWS V14.01,2013-01-16 22:40:00,
2013-01-16 17:46:00,30.1,25.0,29.89,SW,234,3.0,7.0,81,0.00,,---,0.00,VWS V14.01,2013-01-16 22:46:00,
2013-01-16 17:52:00,30.0,24.9,29.89,SW,223,2.0,10.0,81,0.00,,---,0.00,VWS V14.01,2013-01-16 22:52:00,
2013-01-16 17:59:00,29.9,25.1,29.89,West,259,3.0,10.0,82,0.00,,---,0.00,VWS V14.01,2013-01-16 22:59:00,
2013-01-16 18:05:00,29.8,24.7,29.89,SW,232,1.0,5.0,81,0.00,,---,0.00,VWS V14.01,2013-01-16 23:05:00,
2013-01-16 18:11:00,29.9,24.8,29.90,WSW,253,4.0,6.0,81,0.00,,---,0.00,VWS V14.01,2013-01-16 23:11:00,
2013-01-16 18:17:00,29.9,24.5,29.89,SW,218,4.0,10.0,80,0.00,,---,0.00,VWS V14.01,2013-01-16 23:17:00,
2013-01-16 18:23:00,29.9,24.5,29.90,South,184,3.0,11.0,80,0.00,,---,0.00,VWS V14.01,2013-01-16 23:23:00,
2013-01-16 18:29:00,29.9,24.5,29.90,West,260,2.0,11.0,80,0.00,,---,0.00,VWS V14.01,2013-01-16 23:29:00,
2013-01-16 18:35:00,29.8,24.4,29.90,NNE,15,0.0,5.0,80,0.00,,---,0.00,VWS V14.01,2013-01-16 23:35:00,
2013-01-16 18:41:00,29.8,24.4,29.90,SW,228,4.0,7.0,80,0.00,,---,0.00,VWS V14.01,2013-01-16 23:41:00,
2013-01-16 18:47:00,29.8,24.4,29.91,SSW,205,3.0,11.0,80,0.00,,---,0.00,VWS V14.01,2013-01-16 23:47:00,
2013-01-16 18:53:00,29.9,24.5,29.91,WNW,286,6.0,11.0,80,0.00,,---,0.00,VWS V14.01,2013-01-16 23:53:00,
2013-01-16 18:59:00,29.9,24.5,29.91,SSW,207,2.0,11.0,80,0.00,,---,0.00,VWS V14.01,2013-01-16 23:59:00,
2013-01-16 19:05:00,29.8,24.4,29.91,WSW,241,4.0,11.0,80,0.00,,---,0.00,VWS V14.01,2013-01-17 00:05:00,
2013-01-16 19:11:00,29.7,24.3,29.91,West,281,2.0,11.0,80,0.00,,---,0.00,VWS V14.01,2013-01-17 00:11:00,
2013-01-16 19:17:00,29.7,24.0,29.91,West,264,2.0,11.0,79,0.00,,---,0.00,VWS V14.01,2013-01-17 00:17:00,
2013-01-16 19:23:00,29.7,24.3,29.91,WSW,251,4.0,11.0,80,0.00,,---,0.00,VWS V14.01,2013-01-17 00:23:00,
2013-01-16 19:29:00,29.6,24.2,29.91,WNW,286,1.0,11.0,80,0.00,,---,0.00,VWS V14.01,2013-01-17 00:29:00,
2013-01-16 19:35:00,29.5,24.1,29.91,South,190,2.0,7.0,80,0.00,,---,0.00,VWS V14.01,2013-01-17 00:35:00,
2013-01-16 19:41:00,29.5,24.4,29.92,WSW,239,4.0,11.0,81,0.00,,---,0.00,VWS V14.01,2013-01-17 00:41:00,
2013-01-16 19:47:00,29.4,24.6,29.92,WSW,252,4.0,13.0,82,0.00,,---,0.00,VWS V14.01,2013-01-17 00:47:00,
2013-01-16 19:53:00,29.4,24.6,29.92,WNW,283,7.0,15.0,82,0.00,,---,0.00,VWS V14.01,2013-01-17 00:53:00,
2013-01-16 19:59:00,29.4,24.6,29.93,West,267,3.0,15.0,82,0.00,,---,0.00,VWS V14.01,2013-01-17 00:59:00,
2013-01-16 20:06:00,29.4,24.6,29.92,WSW,250,3.0,15.0,82,0.00,,---,0.00,VWS V14.01,2013-01-17 01:06:00,
2013-01-16 20:12:00,29.5,24.7,29.91,SW,232,4.0,15.0,82,0.00,,---,0.00,VWS V14.01,2013-01-17 01:12:00,
2013-01-16 20:18:00,29.4,24.6,29.92,West,272,1.0,15.0,82,0.00,,---,0.00,VWS V14.01,2013-01-17 01:18:00,
2013-01-16 20:24:00,29.3,24.5,29.92,SSW,207,7.0,15.0,82,0.00,,---,0.00,VWS V14.01,2013-01-17 01:24:00,
2013-01-16 20:30:00,29.5,24.1,29.92,SW,223,3.0,16.0,80,0.00,,---,0.00,VWS V14.01,2013-01-17 01:30:00,
2013-01-16 20:36:00,29.5,24.4,29.92,SSW,194,2.0,13.0,81,0.00,,---,0.00,VWS V14.01,2013-01-17 01:36:00,
2013-01-16 20:42:00,29.4,24.3,29.92,SSW,205,6.0,15.0,81,0.00,,---,0.00,VWS V14.01,2013-01-17 01:42:00,
2013-01-16 20:48:00,29.3,24.2,29.92,West,268,4.0,15.0,81,0.00,,---,0.00,VWS V14.01,2013-01-17 01:48:00,
2013-01-16 20:54:00,29.1,24.0,29.92,WNW,302,4.0,15.0,81,0.00,,---,0.00,VWS V14.01,2013-01-17 01:54:00,
2013-01-16 21:00:00,29.2,23.8,29.92,West,259,2.0,18.0,80,0.00,,---,0.00,VWS V14.01,2013-01-17 02:00:00,
2013-01-16 21:06:00,29.1,23.7,29.91,WSW,240,3.0,13.0,80,0.00,,---,0.00,VWS V14.01,2013-01-17 02:06:00,
2013-01-16 21:12:00,29.1,23.7,29.91,WNW,292,7.0,13.0,80,0.00,,---,0.00,VWS V14.01,2013-01-17 02:12:00,
2013-01-16 21:18:00,29.2,23.5,29.91,WSW,242,4.0,17.0,79,0.00,,---,0.00,VWS V14.01,2013-01-17 02:18:00,
2013-01-16 21:24:00,29.2,23.5,29.91,SW,232,3.0,17.0,79,0.00,,---,0.00,VWS V14.01,2013-01-17 02:24:00,
2013-01-16 21:30:00,29.2,23.2,29.90,West,264,7.0,17.0,78,0.00,,---,0.00,VWS V14.01,2013-01-17 02:30:00,
2013-01-16 21:36:00,29.2,23.2,29.91,WSW,238,3.0,15.0,78,0.00,,---,0.00,VWS V14.01,2013-01-17 02:36:00,
2013-01-16 21:42:00,29.2,23.2,29.91,West,265,3.0,15.0,78,0.00,,---,0.00,VWS V14.01,2013-01-17 02:42:00,
2013-01-16 21:48:00,29.1,23.1,29.92,WNW,286,5.0,15.0,78,0.00,,---,0.00,VWS V14.01,2013-01-17 02:48:00,
2013-01-16 21:54:00,28.9,22.9,29.92,West,274,14.0,15.0,78,0.00,,---,0.00,VWS V14.01,2013-01-17 02:54:00,
2013-01-16 22:00:00,29.0,23.0,29.92,West,271,3.0,15.0,78,0.00,,---,0.00,VWS V14.01,2013-01-17 03:00:00,
2013-01-16 22:06:00,28.9,22.9,29.92,West,272,3.0,15.0,78,0.00,,---,0.00,VWS V14.01,2013-01-17 03:06:00,
2013-01-16 22:13:00,28.9,22.9,29.92,SSW,199,2.0,15.0,78,0.00,,---,0.00,VWS V14.01,2013-01-17 03:13:00,
2013-01-16 22:19:00,29.0,23.0,29.92,WNW,287,5.0,15.0,78,0.00,,---,0.00,VWS V14.01,2013-01-17 03:19:00,
2013-01-16 22:25:00,29.1,23.1,29.93,West,263,10.0,15.0,78,0.00,,---,0.00,VWS V14.01,2013-01-17 03:25:00,
2013-01-16 22:31:00,29.2,23.2,29.92,WSW,244,2.0,15.0,78,0.00,,---,0.00,VWS V14.01,2013-01-17 03:31:00,
2013-01-16 22:37:00,29.2,23.2,29.93,SW,217,2.0,12.0,78,0.00,,---,0.00,VWS V14.01,2013-01-17 03:37:00,
2013-01-16 22:43:00,29.3,23.0,29.93,NNW,335,9.0,16.0,77,0.00,,---,0.00,VWS V14.01,2013-01-17 03:43:00,
2013-01-16 22:49:00,29.4,23.1,29.93,West,268,5.0,16.0,77,0.00,,---,0.00,VWS V14.01,2013-01-17 03:49:00,
2013-01-16 22:55:00,29.4,23.1,29.93,WNW,284,6.0,16.0,77,0.00,,---,0.00,VWS V14.01,2013-01-17 03:55:00,
2013-01-16 23:01:00,29.5,23.2,29.93,West,265,10.0,16.0,77,0.00,,---,0.00,VWS V14.01,2013-01-17 04:01:00,
2013-01-16 23:07:00,29.6,23.0,29.93,West,269,5.0,19.0,76,0.00,,---,0.00,VWS V14.01,2013-01-17 04:07:00,
2013-01-16 23:13:00,29.7,23.1,29.93,West,277,13.0,19.0,76,0.00,,---,0.00,VWS V14.01,2013-01-17 04:13:00,
2013-01-16 23:19:00,29.7,23.4,29.94,West,273,15.0,19.0,77,0.00,,---,0.00,VWS V14.01,2013-01-17 04:19:00,
2013-01-16 23:25:00,29.7,23.4,29.94,SW,224,6.0,19.0,77,0.00,,---,0.00,VWS V14.01,2013-01-17 04:25:00,
2013-01-16 23:31:00,29.7,23.4,29.94,WNW,296,14.0,19.0,77,0.00,,---,0.00,VWS V14.01,2013-01-17 04:31:00,
2013-01-16 23:40:00,29.6,23.3,29.94,NW,304,10.0,18.0,77,0.00,,---,0.00,VWS V14.01,2013-01-17 04:40:00,
2013-01-16 23:46:00,29.7,23.4,29.93,WSW,256,10.0,24.0,77,0.00,,---,0.00,VWS V14.01,2013-01-17 04:46:00,
2013-01-16 23:52:00,29.7,23.4,29.94,West,270,4.0,24.0,77,0.00,,---,0.00,VWS V14.01,2013-01-17 04:52:00,
2013-01-16 23:58:00,29.7,23.4,29.94,WSW,239,6.0,24.0,77,0.00,,---,0.00,VWS V14.01,2013-01-17 04:58:00,